sat.trackr.live / text

‹ back to catalog

ONEWEB-0206

NORAD 48227 · 2021-031T

PAYLOAD ACTIVE UNKNOWN

§ Identity

Operator
Country
UK
Launch date
2021-04-25
Launch site
VOSTO
Launch vehicle
Mass (kg)
RCS (m²)

Purposes: comms

External: N2YO · Heavens-Above · Gunter

§ Orbital elements

Epoch: 2026-09-20T00:41:53.918592Z

Period
109.55 min
Inclination
87.8905°
Eccentricity
0.0002040
Mean motion
13.14501821 rev/d
Perigee alt
1,204.2 km
Apogee alt
1,207.3 km
Semi-major
7,583.9 km
B*
2.3092e-4
RAAN
270.7841°
Arg perigee
89.1311°
Mean anomaly
271.0052°
Rev number
26,068

§ Raw data

ONEWEB-02061 48227U 21031T   26263.02909628  .00000098  00000+0  23092-3 0  99902 48227  87.8905 270.7841 0002040  89.1311 271.0052 13.14501821260685

JSON: /api/v1/satellites/48227 · /tle

For live sub-satellite position, see the globe view (requires WebGL).

§ Visibility from observer

Set your observer location to see the next 7 days of passes ≥ 10°. The values pass through the URL so the page stays shareable.

No JS? Fill the form by hand. The geolocation button needs JavaScript.